Location: Izlake
(46.1500°N, 14.9500°E)
Time: 01:59:43
(UTC+00:00)

Daily predictions for brighter satellites

Satellite Brightness Start Highest point End
(mag) Time Altitude Azimuth Time Altitude Azimuth Time Altitude Azimuth
USA 215 4.0 02:51:24 10° NE 02:55:54 44° NNE 02:55:54 44° NNE
Cosmos 1943 Rocket 4.4 03:09:38 15° N 03:12:25 20° NE 03:16:33 10° E
USA 267 4.1 03:24:52 10° SSE 03:29:01 36° S 03:29:01 36° S
Cosmos 2278 Rocket 3.7 03:36:40 25° S 03:36:40 25° S 03:38:56 10° SSE
SL-16 R/B 3.9 03:30:01 10° SSE 03:34:52 30° ESE 03:39:44 10° NE
COSMO-SKYMED 1 3.9 03:30:56 10° SE 03:34:55 37° ENE 03:35:20 36° NE
CENTAUR R/B 4.4 03:32:08 10° SSE 03:36:52 26° ESE 03:42:14 10° NE
Cosmos 2219 Rocket 3.9 03:41:52 21° N 03:41:52 21° N 03:43:59 10° NNE
Cosmos 2237 Rocket 2.2 03:43:06 77° NNE 03:43:06 77° NNE 03:48:23 10° NNE
CZ-2C R/B 3.8 03:44:59 15° SSE 03:44:59 15° SSE 03:46:20 10° SE
Cosmos 2208 Rocket 4.4 03:42:48 43° SSE 03:44:23 63° ESE 03:49:44 10° NNE
ERS-2 3.8 03:47:01 10° SE 03:50:15 31° ENE 03:50:35 31° ENE
Cosmos 1513 Rocket 4.3 03:57:03 61° WSW 03:57:53 68° W 04:04:04 10° N
BREEZE-M DEB (TANK) 3.6 03:55:50 47° WNW 03:58:19 75° SSW 04:02:15 10° SE
Cosmos 1626 Rocket 3.7 04:00:28 72° SE 04:00:28 72° SE 04:04:34 10° SSE
Cosmos 1703 4.3 04:03:37 38° SSE 04:03:37 38° SSE 04:06:10 10° SSE
Cosmos 2333 Rocket 3.9 04:04:35 19° NNW 04:04:35 19° NNW 04:06:55 10° N
Lacrosse 4 Rocket 1.5 04:04:26 75° E 04:04:26 75° E 04:08:39 10° NNE
FENGYUN 3A 4.0 04:00:47 10° N 04:04:53 46° NNW 04:04:53 46° NNW
Cosmos 1891 Rocket 4.5 04:10:02 53° W 04:10:10 53° WNW 04:16:05 10° N
USA 238 DEB 4.1 04:04:26 10° SSW 04:10:50 59° ESE 04:17:33 10° NE
USA 238 4.1 04:04:33 10° SSW 04:10:56 58° ESE 04:17:38 10° NE
Cosmos 2297 3.9 04:08:14 22° NNW 04:12:00 69° ENE 04:17:43 10° SE
Cosmos 2360 Rocket 4.4 04:15:25 10° NNW 04:15:25 10° NNW 04:15:30 10° NNW
deb Chang Zheng 4 3.9 04:10:21 10° NNE 04:14:35 63° ESE 04:18:45 10° S
Cosmos 1464 Rocket 4.0 04:13:47 43° WSW 04:15:18 53° WNW 04:21:22 10° N
Cosmos 841 Rocket 3.7 04:16:53 47° NW 04:16:53 47° NW 04:21:18 10° NNE
Gbstr 26 Del rocket 4.4 04:13:50 40° WSW 04:17:00 82° NNW 04:25:12 10° ENE
Cosmos 1980 3.9 04:17:06 48° WNW 04:17:11 48° WNW 04:22:41 10° NNE
MOS 1 Rocket 3.4 04:13:31 10° SSE 04:18:21 77° ENE 04:22:56 10° N
Meteor 1-31 Rocket 4.4 04:15:42 10° N 04:17:16 23° N 04:17:16 23° N
Meteor 1-21 Rocket 4.3 04:17:53 29° NNW 04:20:38 55° W 04:26:19 10° S
Meteor 2-13 Rocket 4.4 04:15:26 10° NNW 04:21:30 60° W 04:27:30 10° S
Cosmos 1346 Rocket 3.6 04:18:51 11° N 04:22:33 50° ENE 04:26:25 10° SSE
SKYMED 2 3.4 04:18:33 10° S 04:22:53 72° WSW 04:23:56 50° NW
COSMOS 2428 4.2 04:25:09 21° NNW 04:25:09 21° NNW 04:28:16 10° N
Cosmos 1758 Rocket 4.1 04:21:24 10° N 04:25:51 61° ENE 04:30:15 10° SSE
Atlas Centaur 2 4.4 04:26:50 15° SW 04:30:19 21° S 04:36:02 10° SE
SAR-Lupe-1 4.3 04:26:49 10° SSE 04:30:22 68° ENE 04:32:40 21° N
ATLAS CENTAUR R/B 1.2 04:31:45 53° NNW 04:31:45 53° NNW 04:34:57 10° NNE
METEOR-M 4.4 04:28:07 10° N 04:33:09 43° WNW 04:34:34 35° WSW
Cosmos 1689 Rocket 2.3 04:32:13 10° SSE 04:35:05 65° ENE 04:35:31 54° NNE
Cosmos 2150 Rocket 4.0 04:33:50 19° NNW 04:37:41 72° WSW 04:43:05 10° S
Cosmos 2084 Rocket 3.6 04:37:18 46° W 04:38:12 55° SW 04:42:37 10° SSE
Cosmos 1092 Rocket 3.8 04:32:29 10° NNW 04:38:39 75° W 04:44:48 10° S
USA 215 4.1 04:34:20 10° NE 04:40:09 36° N 04:43:16 24° NW
Cosmos 1340 4.1 04:42:00 23° SSW 04:42:00 23° SSW 04:43:41 10° SSW
ALOS 4.1 04:36:36 10° N 04:37:53 16° NNW 04:37:53 16° NNW
GEOS 3 Rocket 3.9 04:37:08 10° SE 04:42:28 71° NE 04:46:53 16° NNW
Cosmos 1602 Rocket 3.7 04:40:25 23° NNW 04:42:55 50° W 04:47:15 10° SSW
ADEOS 3.9 04:38:38 10° N 04:43:31 42° WNW 04:47:41 14° SW
BREEZE-M DEB (TANK) 2.7 04:44:16 35° NNE 04:44:16 35° NNE 04:46:17 10° ENE
YAOGAN 6 3.1 04:41:16 10° NNE 04:44:57 61° E 04:48:35 10° S
USA 307 2.8 04:44:42 39° W 04:46:05 65° NNW 04:50:18 10° NE
FALCON 9 DEB 3.3 04:46:55 33° SSW 04:48:02 58° SE 04:51:05 10° ENE
Cosmos 1328 3.9 04:46:59 35° NW 04:48:08 46° W 04:51:53 10° SSW
Nadezhda 4 Rocket 4.3 04:43:21 10° NNW 04:48:56 38° W 04:54:31 10° SSW
BREEZE-M (TANK) 2.7 04:52:16 26° S 04:52:16 26° S 04:53:34 10° SSE
USA 305 3.0 04:50:49 34° W 04:52:24 58° NNW 04:56:37 10° NE
Cosmos 1400 Rocket 3.4 04:53:19 30° WSW 04:54:25 35° WNW 04:58:14 10° N
Cosmos 2098 Rocket 3.3 04:48:48 10° N 04:54:32 86° W 04:58:59 10° S
PSLV R/B 4.3 04:50:40 10° NNE 04:54:40 65° E 04:58:43 10° S
USA 308 3.0 04:53:18 32° W 04:55:06 59° NNW 04:59:21 10° NE
FALCON 9 DEB 3.3 04:55:02 24° SW 04:56:43 61° SE 04:59:49 10° ENE
SL-4 R/B 2.1 04:55:30 34° WNW 04:56:51 53° NNW 05:00:51 10° ENE
Cosmos 1943 Rocket 2.1 04:51:12 10° NNW 04:56:54 85° WSW 05:02:35 10° SSE
Cosmos 2034 Rocket 4.5 04:51:13 10° SW 04:57:04 38° WNW 05:02:57 10° N
Okean O Rocket 3.8 04:54:08 10° NE 04:57:55 28° E 05:01:40 10° SSE
Cosmos 1825 Rocket 3.5 04:54:01 10° N 04:58:31 85° W 05:02:58 10° S
SMAP 4.4 04:54:39 10° NNE 04:59:06 42° E 05:03:30 10° S
CZ-2C R/B 3.2 04:55:41 10° SSE 05:00:51 61° ENE 05:06:11 10° N
Cosmos 2298 Rocket 4.5 05:00:29 16° NW 05:04:16 39° WSW 05:09:11 10° S
USA 306 3.1 05:02:36 26° W 05:04:43 51° NNW 05:08:52 10° NE
H-2A R/B 3.7 05:00:51 10° NNE 05:05:14 48° E 05:09:34 10° S
NOSS 3-2 (A) 3.4 05:00:28 11° SW 05:05:56 60° NW 05:12:30 10° NE
Envisat 2.9 05:01:04 10° NNE 05:06:11 83° WNW 05:11:16 10° SSW
Cosmos 1125 Rocket 3.6 05:01:57 10° NNW 05:07:09 54° WSW 05:12:17 10° S
Cosmos 1634 Rocket 3.9 05:01:02 10° SSW 05:07:09 65° W 05:13:20 10° N
Cosmos 2369 Rocket 2.4 05:01:42 10° NNW 05:07:20 71° ENE 05:12:53 10° SSE
CZ-4B R/B 3.3 05:07:40 10° N 05:10:58 32° WNW 05:14:21 10° SW
COSMO-SKYMED 1 3.7 05:07:43 10° SSW 05:11:11 23° W 05:12:33 20° WNW
PSLV R/B 4.5 05:09:17 10° SSW 05:13:07 37° W 05:17:02 10° NNW
Cosmos 2228 3.0 05:13:11 10° SSW 05:17:21 58° W 05:21:34 10° N
SL-16 R/B 2.5 05:13:20 10° SW 05:18:46 46° WNW 05:24:14 10° NNE
NOSS 3-2 (C) 3.3 05:13:49 10° SW 05:19:29 75° NW 05:26:04 10° NE
CZ-4B R/B 4.1 05:16:25 10° NNE 05:21:58 56° E 05:27:25 10° S
CZ-2C R/B 3.7 05:20:38 10° SW 05:22:12 12° SSW 05:23:43 10° S
ERBS 2.4 05:19:18 10° SW 05:22:33 72° SE 05:25:50 10° NE
Cosmos 1943 4.1 05:17:48 10° S 05:23:19 53° ESE 05:28:51 10° NE
Cosmos 1953 Rocket 3.5 05:19:30 10° NNW 05:23:49 70° W 05:28:09 10° S
ERS-2 3.5 05:21:09 10° SW 05:23:51 20° W 05:25:09 16° WNW
Cosmos 2026 Rocket 4.3 05:18:45 10° NNW 05:24:44 44° W 05:30:43 10° SSW
CENTAUR R/B 2.6 05:20:51 10° SW 05:26:48 67° NW 05:33:57 10° NE
ATLAS 5 CENTAUR R/B 4.0 05:26:35 10° SW 05:27:11 10° SW 05:27:50 10° SSW
Cosmos 2237 Rocket 3.6 05:24:58 15° WNW 05:27:33 19° NW 05:31:34 10° N
H-2A R/B 3.6 05:24:45 10° N 05:27:56 27° WNW 05:31:08 10° SW
FALCON 9 DEB 2.8 05:30:00 10° WSW 05:33:05 68° NNW 05:36:13 10° NE
Cosmos 1656 Rocket 4.0 05:28:16 10° NNW 05:33:42 67° ENE 05:39:04 10° SE
Cosmos 1606 Rocket 3.8 05:29:44 10° SSW 05:33:51 44° WNW 05:38:01 10° N
CZ-4 R/B 4.5 05:31:32 10° NE 05:33:57 16° E 05:36:22 10° SE
Cosmos 1825 3.4 05:31:50 10° N 05:35:30 44° ENE 05:39:07 10° SSE
NOAA 6 4.0 05:31:57 10° N 05:37:07 64° WNW 05:42:14 10° SSW
Cosmos 1455 2.9 05:33:48 10° S 05:37:27 57° E 05:41:10 10° NNE
Cosmos 2058 3.4 05:35:38 10° N 05:39:44 63° E 05:43:46 10° SSE
FALCON 9 DEB 3.0 05:38:33 10° WSW 05:41:36 53° NNW 05:44:40 10° NE
AQUARIUS 4.1 05:37:29 10° NNE 05:42:00 83° WNW 05:46:30 10° SSW
Lacrosse 4 Rocket 3.1 05:40:48 11° W 05:43:31 17° NW 05:46:28 10° N
Cosmos 1300 3.8 05:42:54 10° SW 05:45:56 22° WNW 05:48:59 10° NNW
Cosmos 1315 Rocket 3.8 05:47:19 10° SW 05:50:33 24° WNW 05:53:48 10° NNW
[s.n.47389] 2.3 05:49:57 10° WSW 05:52:32 87° NNW 05:55:08 10° ENE
[s.n.47399] 2.3 05:49:59 10° WSW 05:52:34 87° NNW 05:55:10 10° ENE
[s.n.47393] 2.3 05:50:02 10° WSW 05:52:36 87° NNW 05:55:12 10° ENE
[s.n.47353] 2.3 05:50:06 10° WSW 05:52:40 87° NNW 05:55:16 10° ENE
[s.n.47355] 2.3 05:50:09 10° WSW 05:52:44 87° NNW 05:55:20 10° ENE
[s.n.47365] 2.3 05:50:11 10° WSW 05:52:47 87° NNW 05:55:23 10° ENE
[s.n.47383] 2.3 05:50:17 10° WSW 05:52:51 87° NW 05:55:28 10° ENE
[s.n.47400] 2.4 05:50:16 10° WSW 05:52:53 87° NNW 05:55:32 10° ENE
[s.n.47378] 2.3 05:50:22 10° WSW 05:52:57 86° NNW 05:55:34 10° ENE
[s.n.47395] 2.3 05:50:25 10° WSW 05:53:00 86° NNW 05:55:36 10° ENE
[s.n.47379] 2.3 05:50:32 10° WSW 05:53:07 86° NNW 05:55:43 10° ENE
[s.n.47370] 2.3 05:50:32 10° WSW 05:53:07 86° NNW 05:55:43 10° ENE
[s.n.47351] 2.4 05:50:33 10° WSW 05:53:11 86° NNW 05:55:49 10° ENE
[s.n.47394] 2.3 05:50:38 10° WSW 05:53:14 86° NNW 05:55:50 10° ENE
[s.n.47354] 2.3 05:50:42 10° WSW 05:53:17 86° NNW 05:55:53 10° ENE
[s.n.47360] 2.3 05:50:44 10° WSW 05:53:19 86° NW 05:55:55 10° ENE
[s.n.47369] 2.3 05:50:49 10° WSW 05:53:24 86° NW 05:56:00 10° ENE
[s.n.47406] 2.3 05:50:51 10° WSW 05:53:26 86° NW 05:56:03 10° ENE
[s.n.47384] 2.3 05:50:55 10° WSW 05:53:30 85° NNW 05:56:06 10° ENE
[s.n.47356] 2.3 05:50:57 10° WSW 05:53:33 85° NNW 05:56:09 10° ENE
[s.n.47407] 2.3 05:51:01 10° WSW 05:53:36 85° NNW 05:56:12 10° ENE
[s.n.47385] 2.3 05:51:01 10° WSW 05:53:38 85° NW 05:56:17 10° ENE
Cosmos 1655 Rocket 4.0 05:47:27 10° NNW 05:53:40 67° W 05:59:54 10° S
[s.n.47358] 2.3 05:51:08 10° WSW 05:53:43 85° NNW 05:56:19 10° ENE
[s.n.47398] 2.3 05:51:10 10° WSW 05:53:46 85° NNW 05:56:21 10° ENE
[s.n.47361] 2.3 05:51:14 10° WSW 05:53:49 85° NNW 05:56:26 10° ENE
[s.n.47392] 2.3 05:51:16 10° WSW 05:53:51 85° NW 05:56:28 10° ENE
[s.n.47382] 2.3 05:51:20 10° WSW 05:53:55 85° NNW 05:56:31 10° ENE
Meteor 2-21 4.5 05:47:44 10° N 05:53:58 80° W 06:00:10 10° S
[s.n.47359] 2.3 05:51:22 10° WSW 05:53:58 85° NNW 05:56:36 10° ENE
[s.n.47401] 2.3 05:51:27 10° WSW 05:54:03 84° NNW 05:56:39 10° ENE
[s.n.47380] 2.3 05:51:26 10° WSW 05:54:04 85° NNW 05:56:43 10° ENE
[s.n.47386] 2.3 05:51:34 10° WSW 05:54:10 84° NNW 05:56:46 10° ENE
[s.n.47408] 2.3 05:51:34 10° WSW 05:54:12 84° NNW 05:56:51 10° ENE
[s.n.47396] 2.3 05:51:40 10° WSW 05:54:15 84° NNW 05:56:51 10° ENE
[s.n.47391] 2.3 05:51:42 10° WSW 05:54:17 84° NNW 05:56:54 10° ENE
[s.n.47402] 2.3 05:51:46 10° WSW 05:54:21 84° NNW 05:56:57 10° ENE
[s.n.47404] 2.3 05:51:49 10° WSW 05:54:25 84° NNW 05:57:01 10° ENE
[s.n.47403] 2.3 05:51:52 10° WSW 05:54:28 84° NNW 05:57:04 10° ENE
[s.n.47381] 2.3 05:51:56 10° WSW 05:54:31 84° NNW 05:57:07 10° ENE
[s.n.47372] 2.3 05:52:00 10° WSW 05:54:35 83° NW 05:57:11 10° ENE
[s.n.47405] 2.3 05:52:02 10° WSW 05:54:37 83° NW 05:57:14 10° ENE
[s.n.47368] 2.3 05:52:07 10° WSW 05:54:42 83° NW 05:57:19 10° ENE
[s.n.47350] 2.3 05:52:10 10° WSW 05:54:45 83° NNW 05:57:21 10° ENE
[s.n.47349] 2.3 05:52:09 10° WSW 05:54:47 83° NNW 05:57:26 10° ENE
[s.n.47367] 2.3 05:52:14 10° WSW 05:54:50 83° NNW 05:57:27 10° ENE
[s.n.47373] 2.3 05:52:15 10° WSW 05:54:53 83° NNW 05:57:32 10° ENE
[s.n.47377] 2.3 05:52:19 10° WSW 05:54:57 83° NNW 05:57:36 10° ENE
[s.n.47371] 2.3 05:52:21 10° WSW 05:55:00 83° NNW 05:57:38 10° ENE
[s.n.47362] 2.3 05:52:24 10° WSW 05:55:02 83° NNW 05:57:41 10° ENE
[s.n.47363] 2.3 05:52:28 10° WSW 05:55:05 83° NW 05:57:45 10° ENE
[s.n.47374] 2.3 05:52:33 10° WSW 05:55:09 83° NNW 05:57:47 10° ENE
[s.n.47357] 2.3 05:52:37 10° WSW 05:55:13 82° NNW 05:57:50 10° ENE
[s.n.47390] 2.3 05:52:41 10° WSW 05:55:17 82° NNW 05:57:53 10° ENE
[s.n.47387] 2.3 05:52:44 10° WSW 05:55:20 82° NNW 05:57:56 10° ENE
[s.n.47375] 2.3 05:52:44 10° WSW 05:55:20 82° NNW 05:57:56 10° ENE
[s.n.47376] 2.3 05:52:44 10° WSW 05:55:23 82° NNW 05:58:02 10° ENE
[s.n.47366] 2.3 05:52:54 10° WSW 05:55:30 82° NNW 05:58:07 10° ENE
[s.n.47352] 2.3 05:52:56 10° WSW 05:55:33 82° NNW 05:58:11 10° ENE
PAYLOAD B 4.3 05:50:05 10° N 05:55:35 59° WNW 06:01:04 10° SSW
[s.n.47364] 2.3 05:53:00 10° WSW 05:55:37 82° NNW 05:58:15 10° ENE
[s.n.47388] 2.3 05:53:03 10° WSW 05:55:40 82° NNW 05:58:18 10° ENE
[s.n.47397] 2.3 05:53:10 10° WSW 05:55:45 81° NNW 05:58:22 10° ENE
NOAA 11 4.2 05:50:29 10° NNE 05:55:57 79° WNW 06:01:23 10° SSW
ATLAS 3B R/B 3.4 05:53:19 10° SSW 05:59:43 59° ESE 06:06:16 10° NE
USA 238 DEB 4.2 05:55:55 10° WSW 06:02:06 39° NW 06:08:36 10° NNE
USA 238 4.2 05:56:01 10° WSW 06:02:12 40° NW 06:08:42 10° NNE
Meteor 2-14 Rocket 4.5 05:57:20 10° NNW 06:03:26 71° W 06:09:32 10° S
